Time,TemperatureF,DewpointF,PressureIn,WindDirection,WindDirectionDegrees,WindSpeedMPH,WindSpeedGustMPH,Humidity,HourlyPrecipIn,Conditions,Clouds,dailyrainin,SoftwareType,DateUTC
2013-03-17 00:03:00,23.0,17.0,29.96,SW,231,3.0,6.0,79,0.00,,,0.00,,2013-03-17 04:03:00,
2013-03-17 00:13:00,23.0,17.0,29.96,SW,231,3.0,6.0,79,0.00,,,0.00,,2013-03-17 04:13:00,
2013-03-17 00:23:00,24.0,18.0,29.96,SW,223,4.0,6.0,78,0.00,,,0.00,,2013-03-17 04:23:00,
2013-03-17 00:32:00,24.0,18.0,29.96,SW,219,2.0,7.0,78,0.00,,,0.00,,2013-03-17 04:32:00,
2013-03-17 00:43:00,24.0,18.0,29.96,SW,219,2.0,7.0,78,0.00,,,0.00,,2013-03-17 04:43:00,
2013-03-17 00:53:00,23.0,17.0,29.97,SW,225,2.0,3.0,79,0.00,,,0.00,,2013-03-17 04:53:00,
2013-03-17 01:03:00,23.0,18.0,29.97,SSW,202,0.0,4.0,80,0.00,,,0.00,,2013-03-17 05:03:00,
2013-03-17 01:12:00,23.0,18.0,29.97,SSW,202,0.0,4.0,80,0.00,,,0.00,,2013-03-17 05:12:00,
2013-03-17 01:22:00,23.0,18.0,29.98,SW,219,1.0,5.0,81,0.00,,,0.00,,2013-03-17 05:22:00,
2013-03-17 01:32:00,23.0,18.0,29.99,WSW,251,1.0,5.0,81,0.00,,,0.00,,2013-03-17 05:32:00,
2013-03-17 01:42:00,23.0,18.0,29.99,WSW,251,1.0,5.0,81,0.00,,,0.00,,2013-03-17 05:42:00,
2013-03-17 01:52:00,24.0,19.0,29.99,WSW,244,5.0,9.0,81,0.00,,,0.00,,2013-03-17 05:52:00,
2013-03-17 02:02:00,24.0,19.0,30.00,SW,234,4.0,11.0,80,0.00,,,0.00,,2013-03-17 06:02:00,
2013-03-17 02:12:00,24.0,19.0,30.00,SW,234,4.0,11.0,80,0.00,,,0.00,,2013-03-17 06:12:00,
2013-03-17 02:22:00,25.0,20.0,30.00,WSW,249,2.0,9.0,80,0.00,,,0.00,,2013-03-17 06:22:00,
2013-03-17 02:32:00,25.0,20.0,30.00,West,267,2.0,9.0,80,0.00,,,0.00,,2013-03-17 06:32:00,
2013-03-17 02:42:00,25.0,20.0,30.00,West,267,2.0,9.0,80,0.00,,,0.00,,2013-03-17 06:42:00,
2013-03-17 02:52:00,25.0,20.0,30.00,WNW,293,3.0,4.0,82,0.00,,,0.00,,2013-03-17 06:52:00,
2013-03-17 03:02:00,25.0,21.0,30.00,West,269,3.0,6.0,83,0.00,,,0.00,,2013-03-17 07:02:00,
2013-03-17 03:12:00,25.0,21.0,30.00,West,269,3.0,6.0,83,0.00,,,0.00,,2013-03-17 07:12:00,
2013-03-17 03:22:00,25.0,21.0,30.00,West,267,4.0,7.0,84,0.00,,,0.00,,2013-03-17 07:22:00,
2013-03-17 03:32:00,26.0,22.0,30.00,West,281,5.0,7.0,85,0.00,,,0.00,,2013-03-17 07:32:00,
2013-03-17 03:42:00,26.0,22.0,30.00,West,281,5.0,7.0,85,0.00,,,0.00,,2013-03-17 07:42:00,
2013-03-17 03:52:00,26.0,22.0,30.01,West,267,3.0,6.0,86,0.00,,,0.00,,2013-03-17 07:52:00,
2013-03-17 04:03:00,25.0,21.0,30.01,West,261,3.0,6.0,86,0.00,,,0.00,,2013-03-17 08:03:00,
2013-03-17 04:13:00,26.0,23.0,30.01,NW,310,2.0,5.0,87,0.00,,,0.00,,2013-03-17 08:13:00,
2013-03-17 04:22:00,26.0,23.0,30.01,NW,310,2.0,5.0,87,0.00,,,0.00,,2013-03-17 08:22:00,
2013-03-17 04:32:00,26.0,23.0,30.02,WNW,286,2.0,9.0,87,0.00,,,0.00,,2013-03-17 08:32:00,
2013-03-17 04:42:00,26.0,23.0,30.02,WNW,286,2.0,9.0,87,0.00,,,0.00,,2013-03-17 08:42:00,
2013-03-17 04:52:00,25.0,21.0,30.02,NW,306,5.0,10.0,86,0.00,,,0.00,,2013-03-17 08:52:00,
2013-03-17 05:03:00,26.0,22.0,30.03,NNW,327,4.0,10.0,84,0.00,,,0.00,,2013-03-17 09:03:00,
2013-03-17 05:12:00,26.0,22.0,30.03,NNW,327,4.0,10.0,84,0.00,,,0.00,,2013-03-17 09:12:00,
2013-03-17 05:22:00,25.0,21.0,30.03,NW,311,2.0,7.0,83,0.00,,,0.00,,2013-03-17 09:22:00,
2013-03-17 05:32:00,25.0,20.0,30.03,WNW,295,5.0,9.0,82,0.00,,,0.00,,2013-03-17 09:32:00,
2013-03-17 05:43:00,25.0,20.0,30.03,WNW,295,5.0,9.0,82,0.00,,,0.00,,2013-03-17 09:43:00,
2013-03-17 05:53:00,24.0,20.0,30.04,NW,317,2.0,6.0,84,0.00,,,0.00,,2013-03-17 09:53:00,
2013-03-17 06:03:00,24.0,20.0,30.04,WNW,291,2.0,4.0,85,0.00,,,0.00,,2013-03-17 10:03:00,
2013-03-17 06:13:00,24.0,20.0,30.04,WNW,291,2.0,4.0,85,0.00,,,0.00,,2013-03-17 10:13:00,
2013-03-17 06:23:00,24.0,21.0,30.04,WNW,290,2.0,2.0,87,0.00,,,0.00,,2013-03-17 10:23:00,
2013-03-17 06:33:00,23.0,20.0,30.05,WNW,290,0.0,2.0,87,0.00,,,0.00,,2013-03-17 10:33:00,
2013-03-17 06:42:00,23.0,20.0,30.05,WNW,290,0.0,2.0,87,0.00,,,0.00,,2013-03-17 10:42:00,
2013-03-17 06:52:00,23.0,20.0,30.06,WNW,284,0.0,2.0,87,0.00,,,0.00,,2013-03-17 10:52:00,
2013-03-17 07:02:00,23.0,20.0,30.06,SW,236,0.0,1.0,88,0.00,,,0.00,,2013-03-17 11:02:00,
2013-03-17 07:12:00,23.0,20.0,30.06,SW,236,0.0,1.0,88,0.00,,,0.00,,2013-03-17 11:12:00,
2013-03-17 07:22:00,22.0,19.0,30.07,SSW,213,0.0,0.0,87,0.00,,,0.00,,2013-03-17 11:22:00,
2013-03-17 07:32:00,22.0,19.0,30.08,SSW,213,0.0,0.0,88,0.00,,,0.00,,2013-03-17 11:32:00,
2013-03-17 07:42:00,22.0,19.0,30.08,SSW,213,0.0,0.0,88,0.00,,,0.00,,2013-03-17 11:42:00,
2013-03-17 07:52:00,21.0,18.0,30.09,SW,215,0.0,1.0,88,0.00,,,0.00,,2013-03-17 11:52:00,
2013-03-17 08:02:00,22.0,19.0,30.09,SW,215,0.0,2.0,89,0.00,,,0.00,,2013-03-17 12:02:00,
2013-03-17 08:12:00,22.0,19.0,30.09,SW,215,0.0,2.0,89,0.00,,,0.00,,2013-03-17 12:12:00,
2013-03-17 08:22:00,23.0,20.0,30.09,SSW,209,1.0,3.0,89,0.00,,,0.00,,2013-03-17 12:22:00,
2013-03-17 08:33:00,23.0,20.0,30.10,SW,232,3.0,5.0,88,0.00,,,0.00,,2013-03-17 12:33:00,
2013-03-17 08:43:00,23.0,20.0,30.10,SW,232,3.0,5.0,88,0.00,,,0.00,,2013-03-17 12:43:00,
2013-03-17 08:52:00,24.0,21.0,30.11,WSW,253,1.0,7.0,87,0.00,,,0.00,,2013-03-17 12:52:00,
2013-03-17 09:02:00,25.0,21.0,30.13,West,260,4.0,7.0,85,0.00,,,0.00,,2013-03-17 13:02:00,
2013-03-17 09:12:00,25.0,21.0,30.13,West,260,4.0,7.0,85,0.00,,,0.00,,2013-03-17 13:12:00,
2013-03-17 09:22:00,26.0,21.0,30.13,West,272,5.0,10.0,82,0.00,,,0.00,,2013-03-17 13:22:00,
2013-03-17 09:32:00,26.0,21.0,30.14,WNW,296,4.0,9.0,80,0.00,,,0.00,,2013-03-17 13:32:00,
2013-03-17 09:42:00,26.0,21.0,30.14,WNW,296,4.0,9.0,80,0.00,,,0.00,,2013-03-17 13:42:00,
2013-03-17 09:52:00,27.0,21.0,30.14,WNW,292,12.0,15.0,77,0.00,,,0.00,,2013-03-17 13:52:00,
2013-03-17 10:02:00,28.0,21.0,30.15,WNW,295,3.0,13.0,75,0.00,,,0.00,,2013-03-17 14:02:00,
2013-03-17 10:12:00,28.0,21.0,30.15,WNW,295,3.0,13.0,75,0.00,,,0.00,,2013-03-17 14:12:00,
2013-03-17 10:22:00,28.0,21.0,30.15,WNW,287,6.0,13.0,75,0.00,,,0.00,,2013-03-17 14:22:00,
2013-03-17 10:32:00,28.0,21.0,30.15,NNW,328,3.0,14.0,75,0.00,,,0.00,,2013-03-17 14:32:00,
2013-03-17 10:42:00,28.0,21.0,30.15,NNW,328,3.0,14.0,75,0.00,,,0.00,,2013-03-17 14:42:00,
2013-03-17 10:53:00,28.0,20.0,30.16,NW,317,7.0,14.0,70,0.00,,,0.00,,2013-03-17 14:53:00,
2013-03-17 11:02:00,28.0,19.0,30.17,NW,314,5.0,16.0,69,0.00,,,0.00,,2013-03-17 15:02:00,
2013-03-17 11:12:00,28.0,19.0,30.17,NW,314,5.0,16.0,69,0.00,,,0.00,,2013-03-17 15:12:00,
2013-03-17 11:23:00,28.0,20.0,30.17,WNW,290,7.0,13.0,71,0.00,,,0.00,,2013-03-17 15:23:00,
2013-03-17 11:33:00,28.0,20.0,30.18,NW,309,5.0,16.0,71,0.00,,,0.00,,2013-03-17 15:33:00,
2013-03-17 11:43:00,28.0,20.0,30.18,NW,309,5.0,16.0,71,0.00,,,0.00,,2013-03-17 15:43:00,
2013-03-17 11:53:00,27.0,19.0,30.19,WNW,299,2.0,14.0,72,0.00,,,0.00,,2013-03-17 15:53:00,
2013-03-17 12:03:00,28.0,20.0,30.20,WNW,294,2.0,12.0,73,0.00,,,0.00,,2013-03-17 16:03:00,
2013-03-17 12:12:00,28.0,20.0,30.20,WNW,294,2.0,12.0,73,0.00,,,0.00,,2013-03-17 16:12:00,
2013-03-17 12:23:00,27.0,21.0,30.21,North,360,2.0,10.0,78,0.00,,,0.00,,2013-03-17 16:23:00,
2013-03-17 12:33:00,27.0,20.0,30.22,NW,319,3.0,15.0,73,0.00,,,0.00,,2013-03-17 16:33:00,
2013-03-17 12:43:00,27.0,20.0,30.22,NW,319,3.0,15.0,73,0.00,,,0.00,,2013-03-17 16:43:00,
2013-03-17 12:52:00,27.0,20.0,30.22,NNE,19,3.0,15.0,74,0.00,,,0.00,,2013-03-17 16:52:00,
2013-03-17 13:02:00,27.0,20.0,30.22,NE,44,4.0,12.0,74,0.00,,,0.00,,2013-03-17 17:02:00,
2013-03-17 13:12:00,27.0,20.0,30.22,NE,44,4.0,12.0,74,0.00,,,0.00,,2013-03-17 17:12:00,
2013-03-17 13:22:00,28.0,20.0,30.22,NNE,27,6.0,12.0,72,0.00,,,0.00,,2013-03-17 17:22:00,
2013-03-17 13:33:00,28.0,20.0,30.23,ENE,57,8.0,13.0,72,0.00,,,0.00,,2013-03-17 17:33:00,
2013-03-17 13:42:00,28.0,20.0,30.23,ENE,57,8.0,13.0,72,0.00,,,0.00,,2013-03-17 17:42:00,
2013-03-17 13:53:00,28.0,19.0,30.24,North,5,3.0,12.0,69,0.00,,,0.00,,2013-03-17 17:53:00,
2013-03-17 14:02:00,28.0,18.0,30.23,NNE,25,5.0,13.0,67,0.00,,,0.00,,2013-03-17 18:02:00,
2013-03-17 14:12:00,28.0,18.0,30.23,NNE,25,5.0,13.0,67,0.00,,,0.00,,2013-03-17 18:12:00,
2013-03-17 14:22:00,28.0,18.0,30.23,NE,35,5.0,10.0,65,0.00,,,0.00,,2013-03-17 18:22:00,
2013-03-17 14:32:00,28.0,17.0,30.23,NW,325,4.0,9.0,63,0.00,,,0.00,,2013-03-17 18:32:00,
2013-03-17 14:42:00,28.0,17.0,30.23,NW,325,4.0,9.0,63,0.00,,,0.00,,2013-03-17 18:42:00,
2013-03-17 14:52:00,29.0,17.0,30.23,NNE,32,5.0,12.0,61,0.00,,,0.00,,2013-03-17 18:52:00,
2013-03-17 15:02:00,29.0,18.0,30.23,NE,50,6.0,12.0,62,0.00,,,0.00,,2013-03-17 19:02:00,
2013-03-17 15:12:00,29.0,18.0,30.23,NE,50,6.0,12.0,62,0.00,,,0.00,,2013-03-17 19:12:00,
2013-03-17 15:22:00,28.0,16.0,30.22,NNE,28,5.0,11.0,59,0.00,,,0.00,,2013-03-17 19:22:00,
2013-03-17 15:33:00,29.0,17.0,30.23,NE,42,5.0,11.0,61,0.00,,,0.00,,2013-03-17 19:33:00,
2013-03-17 15:42:00,29.0,17.0,30.23,NE,42,5.0,11.0,61,0.00,,,0.00,,2013-03-17 19:42:00,
2013-03-17 15:53:00,29.0,16.0,30.23,NNE,26,4.0,13.0,58,0.00,,,0.00,,2013-03-17 19:53:00,
2013-03-17 16:02:00,29.0,16.0,30.23,NE,46,7.0,12.0,57,0.00,,,0.00,,2013-03-17 20:02:00,
2013-03-17 16:12:00,29.0,16.0,30.23,NE,46,7.0,12.0,57,0.00,,,0.00,,2013-03-17 20:12:00,
2013-03-17 16:22:00,29.0,15.0,30.24,North,360,3.0,15.0,55,0.00,,,0.00,,2013-03-17 20:22:00,
2013-03-17 16:33:00,29.0,15.0,30.24,NNE,17,7.0,12.0,56,0.00,,,0.00,,2013-03-17 20:33:00,
2013-03-17 16:42:00,29.0,15.0,30.24,NNE,17,7.0,12.0,56,0.00,,,0.00,,2013-03-17 20:42:00,
2013-03-17 16:52:00,28.0,15.0,30.24,NNE,30,4.0,8.0,58,0.00,,,0.00,,2013-03-17 20:52:00,
2013-03-17 17:03:00,28.0,15.0,30.24,North,5,6.0,11.0,57,0.00,,,0.00,,2013-03-17 21:03:00,
2013-03-17 17:12:00,28.0,15.0,30.24,North,5,6.0,11.0,57,0.00,,,0.00,,2013-03-17 21:12:00,
2013-03-17 17:22:00,28.0,13.0,30.24,NNE,19,1.0,7.0,52,0.00,,,0.00,,2013-03-17 21:22:00,
2013-03-17 17:33:00,28.0,13.0,30.25,NW,326,3.0,11.0,52,0.00,,,0.00,,2013-03-17 21:33:00,
2013-03-17 17:43:00,28.0,13.0,30.25,NW,326,3.0,11.0,52,0.00,,,0.00,,2013-03-17 21:43:00,
2013-03-17 17:52:00,28.0,12.0,30.25,NNE,17,4.0,6.0,51,0.00,,,0.00,,2013-03-17 21:52:00,
2013-03-17 18:03:00,28.0,14.0,30.25,NNE,32,3.0,6.0,54,0.00,,,0.00,,2013-03-17 22:03:00,
2013-03-17 18:13:00,28.0,13.0,30.26,North,360,0.0,5.0,52,0.00,,,0.00,,2013-03-17 22:13:00,
2013-03-17 18:23:00,28.0,13.0,30.26,North,360,0.0,5.0,52,0.00,,,0.00,,2013-03-17 22:23:00,
2013-03-17 18:33:00,28.0,12.0,30.26,NNE,15,1.0,6.0,51,0.00,,,0.00,,2013-03-17 22:33:00,
2013-03-17 18:42:00,28.0,12.0,30.26,NNE,15,1.0,6.0,51,0.00,,,0.00,,2013-03-17 22:42:00,
2013-03-17 18:53:00,27.0,12.0,30.26,NE,54,1.0,4.0,52,0.00,,,0.00,,2013-03-17 22:53:00,
2013-03-17 19:03:00,27.0,13.0,30.27,NE,42,4.0,5.0,54,0.00,,,0.00,,2013-03-17 23:03:00,
2013-03-17 19:12:00,27.0,13.0,30.27,NE,42,4.0,5.0,54,0.00,,,0.00,,2013-03-17 23:12:00,
2013-03-17 19:22:00,27.0,12.0,30.27,NNE,16,0.0,0.0,53,0.00,,,0.00,,2013-03-17 23:22:00,
2013-03-17 19:33:00,27.0,13.0,30.27,NE,51,2.0,2.0,54,0.00,,,0.00,,2013-03-17 23:33:00,
2013-03-17 19:42:00,27.0,13.0,30.27,NE,51,2.0,2.0,54,0.00,,,0.00,,2013-03-17 23:42:00,
2013-03-17 19:53:00,25.0,12.0,30.27,ENE,57,0.0,1.0,57,0.00,,,0.00,,2013-03-17 23:53:00,
2013-03-17 20:03:00,25.0,13.0,30.28,NE,56,0.0,0.0,59,0.00,,,0.00,,2013-03-18 00:03:00,
2013-03-17 20:12:00,25.0,13.0,30.28,NE,56,0.0,0.0,59,0.00,,,0.00,,2013-03-18 00:12:00,
2013-03-17 20:22:00,24.0,13.0,30.29,NE,56,0.0,0.0,61,0.00,,,0.00,,2013-03-18 00:22:00,
2013-03-17 20:33:00,24.0,13.0,30.29,NE,56,0.0,0.0,61,0.00,,,0.00,,2013-03-18 00:33:00,
2013-03-17 20:42:00,24.0,13.0,30.29,NE,56,0.0,0.0,61,0.00,,,0.00,,2013-03-18 00:42:00,
2013-03-17 20:53:00,24.0,14.0,30.29,NE,56,0.0,0.0,64,0.00,,,0.00,,2013-03-18 00:53:00,
2013-03-17 21:02:00,24.0,13.0,30.29,NE,56,0.0,0.0,63,0.00,,,0.00,,2013-03-18 01:02:00,
2013-03-17 21:12:00,24.0,13.0,30.29,NE,56,0.0,0.0,63,0.00,,,0.00,,2013-03-18 01:12:00,
2013-03-17 21:22:00,23.0,12.0,30.29,ENE,57,0.0,0.0,63,0.00,,,0.00,,2013-03-18 01:22:00,
2013-03-17 21:32:00,23.0,12.0,30.29,ENE,57,0.0,0.0,62,0.00,,,0.00,,2013-03-18 01:32:00,
2013-03-17 21:42:00,23.0,12.0,30.29,ENE,57,0.0,0.0,62,0.00,,,0.00,,2013-03-18 01:42:00,
2013-03-17 21:52:00,23.0,14.0,30.29,ENE,57,0.0,0.0,67,0.00,,,0.00,,2013-03-18 01:52:00,
2013-03-17 22:02:00,22.0,13.0,30.29,ENE,57,0.0,0.0,68,0.00,,,0.00,,2013-03-18 02:02:00,
2013-03-17 22:12:00,22.0,13.0,30.29,ENE,57,0.0,0.0,68,0.00,,,0.00,,2013-03-18 02:12:00,
2013-03-17 22:22:00,22.0,13.0,30.30,ENE,57,0.0,0.0,68,0.00,,,0.00,,2013-03-18 02:22:00,
2013-03-17 22:32:00,23.0,13.0,30.30,ENE,57,0.0,0.0,66,0.00,,,0.00,,2013-03-18 02:32:00,
2013-03-17 22:42:00,23.0,13.0,30.30,ENE,57,0.0,0.0,66,0.00,,,0.00,,2013-03-18 02:42:00,
2013-03-17 22:52:00,23.0,14.0,30.30,SSE,168,2.0,2.0,67,0.00,,,0.00,,2013-03-18 02:52:00,
2013-03-17 23:03:00,23.0,13.0,30.30,SSE,147,1.0,2.0,66,0.00,,,0.00,,2013-03-18 03:03:00,
2013-03-17 23:12:00,23.0,13.0,30.30,SSE,147,1.0,2.0,66,0.00,,,0.00,,2013-03-18 03:12:00,
2013-03-17 23:22:00,23.0,14.0,30.31,SSE,148,0.0,1.0,67,0.00,,,0.00,,2013-03-18 03:22:00,
2013-03-17 23:42:00,22.0,13.0,30.30,SSE,151,1.0,2.0,68,0.00,,,0.00,,2013-03-18 03:42:00,
2013-03-17 23:53:00,22.0,13.0,30.30,SSE,167,0.0,2.0,68,0.00,,,0.00,,2013-03-18 03:53:00,